Time,TemperatureF,DewpointF,PressureIn,WindDirection,WindDirectionDegrees,WindSpeedMPH,WindSpeedGustMPH,Humidity,HourlyPrecipIn,Conditions,Clouds,dailyrainin,SoftwareType,DateUTC
2013-12-12 00:00:00,37.1,32.7,30.42,WSW,257,0.0,1.0,84,0.00,,CLR,0.00,VWS V14.01,2013-12-12 05:00:00,
2013-12-12 00:01:00,37.1,32.7,30.42,WSW,257,0.0,0.0,84,0.00,,CLR,0.00,VWS V14.01,2013-12-12 05:01:00,
2013-12-12 00:06:00,37.0,32.3,30.42,WSW,257,0.0,0.0,83,0.00,,CLR,0.00,VWS V14.01,2013-12-12 05:06:00,
2013-12-12 00:11:00,37.0,32.0,30.42,West,263,0.0,2.0,82,0.00,,CLR,0.00,VWS V14.01,2013-12-12 05:11:00,
2013-12-12 00:16:00,37.0,32.3,30.42,West,263,0.0,2.0,83,0.00,,CLR,0.00,VWS V14.01,2013-12-12 05:16:00,
2013-12-12 00:21:00,37.0,31.7,30.42,West,264,0.0,2.0,81,0.00,,CLR,0.00,VWS V14.01,2013-12-12 05:21:00,
2013-12-12 00:26:00,37.3,31.4,30.42,West,264,0.0,2.0,79,0.00,,CLR,0.00,VWS V14.01,2013-12-12 05:26:00,
2013-12-12 00:30:00,37.5,31.9,30.42,West,267,0.0,2.0,80,0.00,,CLR,0.00,VWS V15.00,2013-12-12 05:30:00,
2013-12-12 00:31:00,37.5,31.6,30.42,WSW,254,1.0,3.0,79,0.00,,CLR,0.00,VWS V14.01,2013-12-12 05:31:00,
2013-12-12 00:36:00,37.6,31.1,30.42,WNW,298,0.0,4.0,77,0.00,,CLR,0.00,VWS V14.01,2013-12-12 05:36:00,
2013-12-12 00:41:00,37.8,31.6,30.42,WNW,296,1.0,4.0,78,0.00,,CLR,0.00,VWS V14.01,2013-12-12 05:41:00,
2013-12-12 00:46:00,37.8,30.6,30.42,WSW,254,3.0,4.0,75,0.00,,CLR,0.00,VWS V14.01,2013-12-12 05:46:00,
2013-12-12 00:51:00,38.0,30.8,30.42,West,275,0.0,4.0,75,0.00,,CLR,0.00,VWS V14.01,2013-12-12 05:51:00,
2013-12-12 00:56:00,38.0,31.4,30.42,NW,311,0.0,4.0,77,0.00,,CLR,0.00,VWS V14.01,2013-12-12 05:56:00,
2013-12-12 01:00:00,38.0,31.1,30.42,West,259,0.0,4.0,76,0.00,,CLR,0.00,VWS V15.00,2013-12-12 06:00:00,
2013-12-12 01:01:00,37.9,30.7,30.42,West,259,0.0,1.0,75,0.00,,CLR,0.00,VWS V14.01,2013-12-12 06:01:00,
2013-12-12 01:06:00,37.8,30.3,30.42,West,259,0.0,4.0,74,0.00,,CLR,0.00,VWS V14.01,2013-12-12 06:06:00,
2013-12-12 01:11:00,37.7,30.2,30.42,West,259,0.0,4.0,74,0.00,,CLR,0.00,VWS V14.01,2013-12-12 06:11:00,
2013-12-12 01:16:00,37.7,30.2,30.42,West,271,2.0,4.0,74,0.00,,CLR,0.00,VWS V14.01,2013-12-12 06:16:00,
2013-12-12 01:21:00,37.7,29.8,30.42,West,272,0.0,4.0,73,0.00,,CLR,0.00,VWS V14.01,2013-12-12 06:21:00,
2013-12-12 01:26:00,37.8,30.3,30.42,WSW,253,0.0,4.0,74,0.00,,CLR,0.00,VWS V14.01,2013-12-12 06:26:00,
2013-12-12 01:30:00,37.8,29.9,30.42,WSW,249,0.0,4.0,73,0.00,,CLR,0.00,VWS V15.00,2013-12-12 06:30:00,
2013-12-12 01:31:00,37.8,29.9,30.42,WSW,249,0.0,1.0,73,0.00,,CLR,0.00,VWS V14.01,2013-12-12 06:31:00,
2013-12-12 01:36:00,37.7,30.5,30.42,WNW,282,0.0,2.0,75,0.00,,CLR,0.00,VWS V14.01,2013-12-12 06:36:00,
2013-12-12 01:41:00,37.6,29.4,30.42,West,263,1.0,2.0,72,0.00,,CLR,0.00,VWS V14.01,2013-12-12 06:41:00,
2013-12-12 01:46:00,37.5,30.0,30.42,WSW,248,0.0,4.0,74,0.00,,CLR,0.00,VWS V14.01,2013-12-12 06:46:00,
2013-12-12 01:51:00,37.4,29.2,30.42,WNW,284,0.0,5.0,72,0.00,,CLR,0.00,VWS V14.01,2013-12-12 06:51:00,
2013-12-12 01:56:00,37.3,29.1,30.42,West,266,3.0,5.0,72,0.00,,CLR,0.00,VWS V14.01,2013-12-12 06:56:00,
2013-12-12 02:00:00,37.3,29.5,30.42,West,266,0.0,5.0,73,0.00,,CLR,0.00,VWS V14.01,2013-12-12 07:00:00,
2013-12-12 02:01:00,37.2,29.4,30.42,West,266,0.0,0.0,73,0.00,,CLR,0.00,VWS V14.01,2013-12-12 07:01:00,
2013-12-12 02:06:00,36.9,29.4,30.42,West,279,0.0,0.0,74,0.00,,CLR,0.00,VWS V14.01,2013-12-12 07:06:00,
2013-12-12 02:11:00,36.5,29.0,30.42,West,279,0.0,1.0,74,0.00,,CLR,0.00,VWS V14.01,2013-12-12 07:11:00,
2013-12-12 02:16:00,36.3,28.5,30.42,West,279,0.0,1.0,73,0.00,,CLR,0.00,VWS V14.01,2013-12-12 07:16:00,
2013-12-12 02:21:00,36.1,28.6,30.42,West,279,0.0,1.0,74,0.00,,CLR,0.00,VWS V14.01,2013-12-12 07:21:00,
2013-12-12 02:26:00,36.1,29.0,30.42,West,278,0.0,3.0,75,0.00,,CLR,0.00,VWS V14.01,2013-12-12 07:26:00,
2013-12-12 02:30:00,36.1,28.3,30.43,West,261,0.0,3.0,73,0.00,,CLR,0.00,VWS V14.01,2013-12-12 07:30:00,
2013-12-12 02:31:00,36.1,29.3,30.43,West,261,0.0,0.0,76,0.00,,CLR,0.00,VWS V14.01,2013-12-12 07:31:00,
2013-12-12 02:36:00,35.9,28.4,30.43,WSW,257,0.0,2.0,74,0.00,,CLR,0.00,VWS V14.01,2013-12-12 07:36:00,
2013-12-12 02:41:00,35.9,28.4,30.43,WSW,257,0.0,2.0,74,0.00,,CLR,0.00,VWS V14.01,2013-12-12 07:41:00,
2013-12-12 02:46:00,35.7,28.6,30.43,WNW,294,0.0,3.0,75,0.00,,CLR,0.00,VWS V14.01,2013-12-12 07:46:00,
2013-12-12 02:51:00,35.6,29.1,30.43,WNW,287,0.0,3.0,77,0.00,,CLR,0.00,VWS V14.01,2013-12-12 07:51:00,
2013-12-12 02:56:00,35.5,28.0,30.43,WSW,246,0.0,3.0,74,0.00,,CLR,0.00,VWS V14.01,2013-12-12 07:56:00,
2013-12-12 03:00:00,35.4,28.6,30.43,WSW,246,1.0,3.0,76,0.00,,CLR,0.00,VWS V14.01,2013-12-12 08:00:00,
2013-12-12 03:01:00,35.3,28.5,30.43,WSW,250,0.0,3.0,76,0.00,,CLR,0.00,VWS V14.01,2013-12-12 08:01:00,
2013-12-12 03:06:00,35.3,28.5,30.42,WSW,250,0.0,3.0,76,0.00,,CLR,0.00,VWS V14.01,2013-12-12 08:06:00,
2013-12-12 03:11:00,35.2,28.1,30.43,West,267,0.0,3.0,75,0.00,,CLR,0.00,VWS V14.01,2013-12-12 08:11:00,
2013-12-12 03:16:00,35.0,28.9,30.42,West,267,0.0,3.0,78,0.00,,CLR,0.00,VWS V14.01,2013-12-12 08:16:00,
2013-12-12 03:21:00,35.0,28.5,30.42,SSW,209,0.0,3.0,77,0.00,,CLR,0.00,VWS V14.01,2013-12-12 08:21:00,
2013-12-12 03:26:00,34.9,27.8,30.42,WNW,290,1.0,3.0,75,0.00,,CLR,0.00,VWS V14.01,2013-12-12 08:26:00,
2013-12-12 03:30:00,34.9,28.4,30.42,NW,313,0.0,3.0,77,0.00,,CLR,0.00,VWS V14.01,2013-12-12 08:30:00,
2013-12-12 03:31:00,34.8,28.3,30.42,NW,312,0.0,0.0,77,0.00,,CLR,0.00,VWS V14.01,2013-12-12 08:31:00,
2013-12-12 03:36:00,34.4,28.0,30.42,NW,312,0.0,0.0,77,0.00,,CLR,0.00,VWS V14.01,2013-12-12 08:36:00,
2013-12-12 03:41:00,34.3,27.9,30.42,NW,312,0.0,0.0,77,0.00,,CLR,0.00,VWS V14.01,2013-12-12 08:41:00,
2013-12-12 03:46:00,34.1,28.0,30.42,NW,312,0.0,1.0,78,0.00,,CLR,0.00,VWS V14.01,2013-12-12 08:46:00,
2013-12-12 03:51:00,33.8,28.0,30.42,NW,312,0.0,1.0,79,0.00,,CLR,0.00,VWS V14.01,2013-12-12 08:51:00,
2013-12-12 03:56:00,33.7,27.6,30.42,West,266,1.0,1.0,78,0.00,,CLR,0.00,VWS V14.01,2013-12-12 08:56:00,
2013-12-12 04:00:00,33.7,27.9,30.42,West,260,0.0,3.0,79,0.00,,CLR,0.00,VWS V14.01,2013-12-12 09:00:00,
2013-12-12 04:01:00,33.8,27.7,30.42,SW,219,0.0,4.0,78,0.00,,CLR,0.00,VWS V14.01,2013-12-12 09:01:00,
2013-12-12 04:06:00,34.0,27.9,30.42,SW,221,2.0,4.0,78,0.00,,CLR,0.00,VWS V14.01,2013-12-12 09:06:00,
2013-12-12 04:11:00,34.2,27.4,30.42,SW,214,3.0,4.0,76,0.00,,CLR,0.00,VWS V14.01,2013-12-12 09:11:00,
2013-12-12 04:16:00,34.1,27.7,30.42,West,265,0.0,4.0,77,0.00,,CLR,0.00,VWS V14.01,2013-12-12 09:16:00,
2013-12-12 04:21:00,33.9,27.5,30.42,WSW,257,0.0,4.0,77,0.00,,CLR,0.00,VWS V14.01,2013-12-12 09:21:00,
2013-12-12 04:26:00,33.7,27.6,30.42,WSW,257,0.0,4.0,78,0.00,,CLR,0.00,VWS V14.01,2013-12-12 09:26:00,
2013-12-12 04:30:00,33.6,27.5,30.42,WSW,257,0.0,4.0,78,0.00,,CLR,0.00,VWS V15.00,2013-12-12 09:30:00,
2013-12-12 04:31:00,33.5,27.7,30.42,WSW,257,0.0,0.0,79,0.00,,CLR,0.00,VWS V14.01,2013-12-12 09:31:00,
2013-12-12 04:36:00,33.3,27.2,30.42,WSW,252,0.0,4.0,78,0.00,,CLR,0.00,VWS V14.01,2013-12-12 09:36:00,
2013-12-12 04:41:00,33.4,27.3,30.42,SW,227,0.0,4.0,78,0.00,,CLR,0.00,VWS V14.01,2013-12-12 09:41:00,
2013-12-12 04:46:00,33.2,27.4,30.42,SW,234,0.0,4.0,79,0.00,,CLR,0.00,VWS V14.01,2013-12-12 09:46:00,
2013-12-12 04:51:00,33.1,27.3,30.42,West,274,0.0,4.0,79,0.00,,CLR,0.00,VWS V14.01,2013-12-12 09:51:00,
2013-12-12 04:56:00,33.0,27.2,30.43,West,267,0.0,4.0,79,0.00,,CLR,0.00,VWS V14.01,2013-12-12 09:56:00,
2013-12-12 05:00:00,33.1,27.3,30.42,WSW,243,0.0,4.0,79,0.00,,CLR,0.00,VWS V14.01,2013-12-12 10:00:00,
2013-12-12 05:01:00,33.2,27.4,30.43,WNW,287,0.0,4.0,79,0.00,,CLR,0.00,VWS V14.01,2013-12-12 10:01:00,
2013-12-12 05:06:00,33.3,27.2,30.42,SW,234,0.0,4.0,78,0.00,,CLR,0.00,VWS V14.01,2013-12-12 10:06:00,
2013-12-12 05:11:00,33.3,27.2,30.42,WNW,289,0.0,4.0,78,0.00,,CLR,0.00,VWS V14.01,2013-12-12 10:11:00,
2013-12-12 05:16:00,33.3,26.9,30.42,SW,223,0.0,4.0,77,0.00,,CLR,0.00,VWS V14.01,2013-12-12 10:16:00,
2013-12-12 05:21:00,33.2,26.8,30.42,SW,223,0.0,4.0,77,0.00,,CLR,0.00,VWS V14.01,2013-12-12 10:21:00,
2013-12-12 05:26:00,33.1,26.7,30.43,SW,223,0.0,4.0,77,0.00,,CLR,0.00,VWS V14.01,2013-12-12 10:26:00,
2013-12-12 05:30:00,33.2,26.8,30.43,West,279,0.0,4.0,77,0.00,,CLR,0.00,VWS V15.00,2013-12-12 10:30:00,
2013-12-12 05:31:00,33.2,27.1,30.43,West,279,0.0,1.0,78,0.00,,CLR,0.00,VWS V14.01,2013-12-12 10:31:00,
2013-12-12 05:36:00,33.1,27.0,30.43,West,259,0.0,1.0,78,0.00,,CLR,0.00,VWS V14.01,2013-12-12 10:36:00,
2013-12-12 05:41:00,32.8,27.0,30.43,South,188,2.0,2.0,79,0.00,,CLR,0.00,VWS V14.01,2013-12-12 10:41:00,
2013-12-12 05:46:00,32.7,27.2,30.44,WSW,255,0.0,6.0,80,0.00,,CLR,0.00,VWS V14.01,2013-12-12 10:46:00,
2013-12-12 05:51:00,32.6,26.8,30.44,West,264,0.0,6.0,79,0.00,,CLR,0.00,VWS V14.01,2013-12-12 10:51:00,
2013-12-12 05:56:00,32.5,26.4,30.45,SW,225,1.0,6.0,78,0.00,,CLR,0.00,VWS V14.01,2013-12-12 10:56:00,
2013-12-12 06:00:00,32.5,26.4,30.45,WSW,240,0.0,6.0,78,0.00,,CLR,0.00,VWS V14.01,2013-12-12 11:00:00,
2013-12-12 06:01:00,32.5,26.7,30.45,SW,236,0.0,4.0,79,0.00,,CLR,0.00,VWS V14.01,2013-12-12 11:01:00,
2013-12-12 06:06:00,32.7,26.3,30.45,West,275,2.0,7.0,77,0.00,,CLR,0.00,VWS V14.01,2013-12-12 11:06:00,
2013-12-12 06:11:00,32.7,26.3,30.46,West,267,0.0,7.0,77,0.00,,CLR,0.00,VWS V14.01,2013-12-12 11:11:00,
2013-12-12 06:16:00,32.7,26.3,30.46,West,266,0.0,7.0,77,0.00,,CLR,0.00,VWS V14.01,2013-12-12 11:16:00,
2013-12-12 06:21:00,32.7,26.3,30.46,WSW,237,1.0,9.0,77,0.00,,CLR,0.00,VWS V14.01,2013-12-12 11:21:00,
2013-12-12 06:26:00,32.7,26.3,30.47,West,264,0.0,9.0,77,0.00,,CLR,0.00,VWS V14.01,2013-12-12 11:26:00,
2013-12-12 06:30:00,32.6,26.2,30.46,NNW,336,3.0,9.0,77,0.00,,CLR,0.00,VWS V14.01,2013-12-12 11:30:00,
2013-12-12 06:31:00,32.6,26.2,30.47,NE,41,1.0,3.0,77,0.00,,CLR,0.00,VWS V14.01,2013-12-12 11:31:00,
2013-12-12 06:36:00,32.5,26.4,30.47,WSW,246,0.0,6.0,78,0.00,,CLR,0.00,VWS V14.01,2013-12-12 11:36:00,
2013-12-12 06:41:00,32.3,26.2,30.47,West,279,4.0,6.0,78,0.00,,CLR,0.00,VWS V14.01,2013-12-12 11:41:00,
2013-12-12 06:46:00,32.2,26.1,30.47,SW,234,0.0,6.0,78,0.00,,CLR,0.00,VWS V14.01,2013-12-12 11:46:00,
2013-12-12 06:51:00,32.0,26.2,30.47,West,275,0.0,6.0,79,0.00,,CLR,0.00,VWS V14.01,2013-12-12 11:51:00,
2013-12-12 06:56:00,31.9,26.1,30.47,West,275,0.0,6.0,79,0.00,,CLR,0.00,VWS V14.01,2013-12-12 11:56:00,
2013-12-12 07:00:00,31.9,26.1,30.47,West,275,0.0,6.0,79,0.00,,CLR,0.00,VWS V14.01,2013-12-12 12:00:00,
2013-12-12 07:01:00,31.7,25.9,30.47,NE,36,0.0,1.0,79,0.00,,CLR,0.00,VWS V14.01,2013-12-12 12:01:00,
2013-12-12 07:06:00,31.5,26.0,30.47,SW,230,1.0,2.0,80,0.00,,CLR,0.00,VWS V14.01,2013-12-12 12:06:00,
2013-12-12 07:11:00,31.2,26.1,30.47,SW,230,0.0,2.0,81,0.00,,CLR,0.00,VWS V14.01,2013-12-12 12:11:00,
2013-12-12 07:16:00,31.0,26.2,30.47,West,269,2.0,2.0,82,0.00,,CLR,0.00,VWS V14.01,2013-12-12 12:16:00,
2013-12-12 07:21:00,30.9,26.1,30.47,WSW,252,0.0,5.0,82,0.00,,CLR,0.00,VWS V14.01,2013-12-12 12:21:00,
2013-12-12 07:26:00,30.7,25.9,30.47,WSW,246,0.0,5.0,82,0.00,,CLR,0.00,VWS V14.01,2013-12-12 12:26:00,
2013-12-12 07:30:00,30.8,26.0,30.48,WNW,297,0.0,5.0,82,0.00,,CLR,0.00,VWS V15.00,2013-12-12 12:30:00,
2013-12-12 07:31:00,30.8,26.3,30.48,North,5,0.0,2.0,83,0.00,,CLR,0.00,VWS V14.01,2013-12-12 12:31:00,
2013-12-12 07:36:00,30.6,26.1,30.47,SW,235,2.0,4.0,83,0.00,,CLR,0.00,VWS V14.01,2013-12-12 12:36:00,
2013-12-12 07:41:00,30.6,26.1,30.48,SW,236,1.0,4.0,83,0.00,,CLR,0.00,VWS V14.01,2013-12-12 12:41:00,
2013-12-12 07:46:00,30.6,26.1,30.48,WSW,238,0.0,4.0,83,0.00,,CLR,0.00,VWS V14.01,2013-12-12 12:46:00,
2013-12-12 07:51:00,30.6,25.8,30.48,NNW,344,1.0,4.0,82,0.00,,CLR,0.00,VWS V14.01,2013-12-12 12:51:00,
2013-12-12 07:56:00,30.6,26.1,30.48,NE,48,2.0,4.0,83,0.00,,CLR,0.00,VWS V14.01,2013-12-12 12:56:00,
2013-12-12 08:00:00,30.6,26.1,30.48,WSW,255,0.0,4.0,83,0.00,,CLR,0.00,VWS V14.01,2013-12-12 13:00:00,
2013-12-12 08:01:00,30.7,25.9,30.48,SW,232,0.0,3.0,82,0.00,,CLR,0.00,VWS V14.01,2013-12-12 13:01:00,
2013-12-12 08:06:00,30.7,25.9,30.48,West,260,2.0,4.0,82,0.00,,CLR,0.00,VWS V14.01,2013-12-12 13:06:00,
2013-12-12 08:11:00,30.8,26.3,30.48,SW,231,0.0,4.0,83,0.00,,CLR,0.00,VWS V14.01,2013-12-12 13:11:00,
2013-12-12 08:16:00,31.0,26.5,30.48,SSW,207,1.0,4.0,83,0.00,,CLR,0.00,VWS V14.01,2013-12-12 13:16:00,
2013-12-12 08:21:00,31.3,26.5,30.48,WNW,288,0.0,4.0,82,0.00,,CLR,0.00,VWS V14.01,2013-12-12 13:21:00,
2013-12-12 08:26:00,31.6,26.5,30.48,NW,326,0.0,5.0,81,0.00,,CLR,0.00,VWS V14.01,2013-12-12 13:26:00,
2013-12-12 08:30:00,31.7,26.5,30.49,West,276,0.0,5.0,81,0.00,,CLR,0.00,VWS V15.00,2013-12-12 13:30:00,
2013-12-12 08:31:00,31.7,26.2,30.49,West,263,1.0,5.0,80,0.00,,CLR,0.00,VWS V14.01,2013-12-12 13:31:00,
2013-12-12 08:36:00,32.0,26.5,30.49,WNW,283,1.0,5.0,80,0.00,,CLR,0.00,VWS V14.01,2013-12-12 13:36:00,
2013-12-12 08:41:00,32.1,26.3,30.49,SW,234,2.0,6.0,79,0.00,,CLR,0.00,VWS V14.01,2013-12-12 13:41:00,
2013-12-12 08:46:00,32.3,26.5,30.49,WNW,299,1.0,6.0,79,0.00,,CLR,0.00,VWS V14.01,2013-12-12 13:46:00,
2013-12-12 08:51:00,32.6,26.5,30.49,SW,234,0.0,6.0,78,0.00,,CLR,0.00,VWS V14.01,2013-12-12 13:51:00,
2013-12-12 08:56:00,32.9,26.8,30.49,WNW,282,0.0,6.0,78,0.00,,CLR,0.00,VWS V14.01,2013-12-12 13:56:00,
2013-12-12 09:00:00,33.3,27.2,30.49,West,274,1.0,6.0,78,0.00,,CLR,0.00,VWS V15.00,2013-12-12 14:00:00,
2013-12-12 09:01:00,33.4,27.0,30.49,West,263,0.0,1.0,77,0.00,,CLR,0.00,VWS V14.01,2013-12-12 14:01:00,
2013-12-12 09:06:00,33.9,27.5,30.49,West,263,0.0,3.0,77,0.00,,CLR,0.00,VWS V14.01,2013-12-12 14:06:00,
2013-12-12 09:11:00,34.2,27.1,30.50,WSW,257,2.0,6.0,75,0.00,,CLR,0.00,VWS V14.01,2013-12-12 14:11:00,
2013-12-12 09:16:00,34.3,26.9,30.50,West,274,1.0,7.0,74,0.00,,CLR,0.00,VWS V14.01,2013-12-12 14:16:00,
2013-12-12 09:21:00,34.6,27.2,30.50,NNE,20,0.0,7.0,74,0.00,,CLR,0.00,VWS V14.01,2013-12-12 14:21:00,
2013-12-12 09:26:00,34.8,27.0,30.51,NNE,14,0.0,7.0,73,0.00,,CLR,0.00,VWS V14.01,2013-12-12 14:26:00,
2013-12-12 09:30:00,34.8,26.7,30.51,NW,312,0.0,7.0,72,0.00,,CLR,0.00,VWS V15.00,2013-12-12 14:30:00,
2013-12-12 09:31:00,34.9,26.8,30.51,NNW,340,3.0,6.0,72,0.00,,CLR,0.00,VWS V14.01,2013-12-12 14:31:00,
2013-12-12 09:36:00,35.2,27.1,30.51,NW,304,1.0,6.0,72,0.00,,CLR,0.00,VWS V14.01,2013-12-12 14:36:00,
2013-12-12 09:41:00,35.7,27.2,30.51,West,267,1.0,9.0,71,0.00,,CLR,0.00,VWS V14.01,2013-12-12 14:41:00,
2013-12-12 09:46:00,36.1,27.3,30.51,West,265,0.0,9.0,70,0.00,,CLR,0.00,VWS V14.01,2013-12-12 14:46:00,
2013-12-12 09:51:00,36.8,27.6,30.51,NW,325,0.0,9.0,69,0.00,,CLR,0.00,VWS V14.01,2013-12-12 14:51:00,
2013-12-12 09:56:00,37.3,28.1,30.52,NNE,26,0.0,9.0,69,0.00,,CLR,0.00,VWS V14.01,2013-12-12 14:56:00,
2013-12-12 10:00:00,37.6,28.0,30.52,WNW,286,3.0,9.0,68,0.00,,CLR,0.00,VWS V14.01,2013-12-12 15:00:00,
2013-12-12 10:01:00,37.7,27.8,30.52,NW,325,1.0,5.0,67,0.00,,CLR,0.00,VWS V14.01,2013-12-12 15:01:00,
2013-12-12 10:06:00,37.6,28.0,30.52,WNW,288,1.0,5.0,68,0.00,,CLR,0.00,VWS V14.01,2013-12-12 15:06:00,
2013-12-12 10:11:00,37.9,27.6,30.52,NNW,348,0.0,5.0,66,0.00,,CLR,0.00,VWS V14.01,2013-12-12 15:11:00,
2013-12-12 10:16:00,38.2,27.1,30.52,SW,232,3.0,7.0,64,0.00,,CLR,0.00,VWS V14.01,2013-12-12 15:16:00,
2013-12-12 10:21:00,38.4,27.7,30.52,WSW,248,0.0,7.0,65,0.00,,CLR,0.00,VWS V14.01,2013-12-12 15:21:00,
2013-12-12 10:26:00,39.4,27.9,30.52,SW,231,0.0,8.0,63,0.00,,CLR,0.00,VWS V14.01,2013-12-12 15:26:00,
2013-12-12 10:30:00,39.5,27.6,30.52,WNW,288,3.0,8.0,62,0.00,,CLR,0.00,VWS V15.00,2013-12-12 15:30:00,
2013-12-12 10:31:00,39.3,27.0,30.52,North,360,6.0,7.0,61,0.00,,CLR,0.00,VWS V14.01,2013-12-12 15:31:00,
2013-12-12 10:36:00,39.0,27.1,30.52,NE,36,5.0,7.0,62,0.00,,CLR,0.00,VWS V14.01,2013-12-12 15:36:00,
2013-12-12 10:41:00,39.8,27.5,30.52,SW,234,7.0,8.0,61,0.00,,CLR,0.00,VWS V14.01,2013-12-12 15:41:00,
2013-12-12 10:46:00,39.7,27.0,30.52,West,278,0.0,8.0,60,0.00,,CLR,0.00,VWS V14.01,2013-12-12 15:46:00,
2013-12-12 10:51:00,40.4,27.6,30.52,NW,323,1.0,8.0,60,0.00,,CLR,0.00,VWS V14.01,2013-12-12 15:51:00,
2013-12-12 10:56:00,40.6,27.4,30.52,WNW,294,0.0,8.0,59,0.00,,CLR,0.00,VWS V14.01,2013-12-12 15:56:00,
2013-12-12 11:00:00,41.3,27.6,30.52,SW,223,3.0,8.0,58,0.00,,CLR,0.00,VWS V15.00,2013-12-12 16:00:00,
2013-12-12 11:01:00,40.8,26.8,30.52,SW,215,2.0,7.0,57,0.00,,CLR,0.00,VWS V14.01,2013-12-12 16:01:00,
2013-12-12 11:06:00,40.6,27.4,30.52,North,360,1.0,7.0,59,0.00,,CLR,0.00,VWS V14.01,2013-12-12 16:06:00,
2013-12-12 11:11:00,41.6,27.9,30.52,West,262,2.0,7.0,58,0.00,,CLR,0.00,VWS V14.01,2013-12-12 16:11:00,
2013-12-12 11:16:00,42.2,27.6,30.51,SW,236,1.0,7.0,56,0.00,,CLR,0.00,VWS V14.01,2013-12-12 16:16:00,
2013-12-12 11:21:00,41.3,26.4,30.52,WSW,246,0.0,9.0,55,0.00,,CLR,0.00,VWS V14.01,2013-12-12 16:21:00,
2013-12-12 11:26:00,41.9,27.8,30.52,NE,46,3.0,9.0,57,0.00,,CLR,0.00,VWS V14.01,2013-12-12 16:26:00,
2013-12-12 11:30:00,42.4,28.3,30.52,North,360,0.0,9.0,57,0.00,,CLR,0.00,VWS V14.01,2013-12-12 16:30:00,
2013-12-12 11:31:00,42.5,27.9,30.52,West,266,0.0,3.0,56,0.00,,CLR,0.00,VWS V14.01,2013-12-12 16:31:00,
2013-12-12 11:36:00,41.7,26.7,30.51,South,182,0.0,10.0,55,0.00,,CLR,0.00,VWS V14.01,2013-12-12 16:36:00,
2013-12-12 11:41:00,42.3,27.3,30.51,WSW,246,0.0,10.0,55,0.00,,CLR,0.00,VWS V14.01,2013-12-12 16:41:00,
2013-12-12 11:46:00,43.1,26.2,30.51,NW,317,0.0,10.0,51,0.00,,CLR,0.00,VWS V14.01,2013-12-12 16:46:00,
2013-12-12 11:50:00,43.4,26.5,30.51,WNW,284,4.0,10.0,51,0.00,,CLR,0.00,VWS V14.01,2013-12-12 16:50:00,
2013-12-12 11:55:00,43.8,26.9,30.51,NNE,28,0.0,10.0,51,0.00,,CLR,0.00,VWS V14.01,2013-12-12 16:55:00,
2013-12-12 12:00:00,44.5,27.0,30.51,WSW,251,3.0,5.0,50,0.00,,CLR,0.00,VWS V14.01,2013-12-12 17:00:00,
2013-12-12 12:05:00,44.8,27.3,30.51,SW,227,1.0,7.0,50,0.00,,CLR,0.00,VWS V14.01,2013-12-12 17:05:00,
2013-12-12 12:10:00,44.9,26.4,30.51,North,355,3.0,7.0,48,0.00,,CLR,0.00,VWS V14.01,2013-12-12 17:10:00,
2013-12-12 12:15:00,44.7,26.7,30.50,North,5,0.0,7.0,49,0.00,,CLR,0.00,VWS V14.01,2013-12-12 17:15:00,
2013-12-12 12:20:00,45.5,27.0,30.50,NNE,18,0.0,7.0,48,0.00,,CLR,0.00,VWS V14.01,2013-12-12 17:20:00,
2013-12-12 12:25:00,45.8,26.7,30.50,WSW,246,7.0,7.0,47,0.00,,CLR,0.00,VWS V14.01,2013-12-12 17:25:00,
2013-12-12 12:30:00,45.7,26.6,30.50,NNE,20,3.0,6.0,47,0.00,,CLR,0.00,VWS V14.01,2013-12-12 17:30:00,
2013-12-12 12:35:00,46.1,26.5,30.50,North,10,4.0,9.0,46,0.00,,CLR,0.00,VWS V14.01,2013-12-12 17:35:00,
2013-12-12 12:40:00,46.2,25.0,30.49,WNW,290,1.0,9.0,43,0.00,,CLR,0.00,VWS V14.01,2013-12-12 17:40:00,
2013-12-12 12:45:00,46.5,25.8,30.49,SW,219,0.0,9.0,44,0.00,,CLR,0.00,VWS V14.01,2013-12-12 17:45:00,
2013-12-12 12:50:00,47.0,25.7,30.49,WSW,253,3.0,9.0,43,0.00,,CLR,0.00,VWS V14.01,2013-12-12 17:50:00,
2013-12-12 12:55:00,47.0,24.5,30.49,WNW,288,5.0,12.0,41,0.00,,CLR,0.00,VWS V14.01,2013-12-12 17:55:00,
2013-12-12 13:00:00,46.6,23.6,30.48,SSW,211,1.0,6.0,40,0.00,,CLR,0.00,VWS V14.01,2013-12-12 18:00:00,
2013-12-12 13:05:00,46.8,24.9,30.48,WNW,296,5.0,10.0,42,0.00,,CLR,0.00,VWS V14.01,2013-12-12 18:05:00,
2013-12-12 13:10:00,47.2,25.9,30.48,North,355,2.0,10.0,43,0.00,,CLR,0.00,VWS V14.01,2013-12-12 18:10:00,
2013-12-12 13:15:00,47.9,24.8,30.48,West,281,2.0,10.0,40,0.00,,CLR,0.00,VWS V14.01,2013-12-12 18:15:00,
2013-12-12 13:20:00,47.9,25.4,30.48,NE,42,1.0,10.0,41,0.00,,CLR,0.00,VWS V14.01,2013-12-12 18:20:00,
2013-12-12 13:25:00,47.8,25.8,30.47,WNW,301,0.0,10.0,42,0.00,,CLR,0.00,VWS V14.01,2013-12-12 18:25:00,
2013-12-12 13:30:00,47.7,25.2,30.47,North,360,5.0,7.0,41,0.00,,CLR,0.00,VWS V14.01,2013-12-12 18:30:00,
2013-12-12 13:35:00,47.6,24.5,30.47,West,273,1.0,11.0,40,0.00,,CLR,0.00,VWS V14.01,2013-12-12 18:35:00,
2013-12-12 13:40:00,47.5,24.4,30.47,West,259,3.0,11.0,40,0.00,,CLR,0.00,VWS V14.01,2013-12-12 18:40:00,
2013-12-12 13:45:00,47.9,23.5,30.46,SW,233,5.0,11.0,38,0.00,,CLR,0.00,VWS V14.01,2013-12-12 18:45:00,
2013-12-12 13:50:00,47.8,23.4,30.46,NE,49,0.0,11.0,38,0.00,,CLR,0.00,VWS V14.01,2013-12-12 18:50:00,
2013-12-12 13:55:00,48.1,24.3,30.46,SSW,207,0.0,11.0,39,0.00,,CLR,0.00,VWS V14.01,2013-12-12 18:55:00,
2013-12-12 14:00:00,48.8,23.7,30.46,NNW,341,1.0,9.0,37,0.00,,CLR,0.00,VWS V14.01,2013-12-12 19:00:00,
2013-12-12 14:05:00,48.7,23.0,30.46,WNW,299,1.0,9.0,36,0.00,,CLR,0.00,VWS V14.01,2013-12-12 19:05:00,
2013-12-12 14:10:00,49.0,23.2,30.46,WNW,295,2.0,9.0,36,0.00,,CLR,0.00,VWS V14.01,2013-12-12 19:10:00,
2013-12-12 14:15:00,49.2,24.7,30.45,NNE,28,0.0,9.0,38,0.00,,CLR,0.00,VWS V14.01,2013-12-12 19:15:00,
2013-12-12 14:20:00,49.6,24.4,30.45,WSW,251,1.0,9.0,37,0.00,,CLR,0.00,VWS V14.01,2013-12-12 19:20:00,
2013-12-12 14:25:00,49.2,24.7,30.45,NNE,14,1.0,9.0,38,0.00,,CLR,0.00,VWS V14.01,2013-12-12 19:25:00,
2013-12-12 14:30:00,48.9,23.1,30.45,West,263,1.0,6.0,36,0.00,,CLR,0.00,VWS V14.01,2013-12-12 19:30:00,
2013-12-12 14:35:00,48.5,22.8,30.45,West,274,1.0,6.0,36,0.00,,CLR,0.00,VWS V14.01,2013-12-12 19:35:00,
2013-12-12 14:40:00,48.6,22.2,30.45,WSW,244,2.0,7.0,35,0.00,,CLR,0.00,VWS V14.01,2013-12-12 19:40:00,
2013-12-12 14:45:00,48.1,21.8,30.44,WSW,251,2.0,10.0,35,0.00,,CLR,0.00,VWS V14.01,2013-12-12 19:45:00,
2013-12-12 14:50:00,48.1,22.4,30.45,NW,306,2.0,10.0,36,0.00,,CLR,0.00,VWS V14.01,2013-12-12 19:50:00,
2013-12-12 14:55:00,48.4,22.7,30.44,West,278,0.0,10.0,36,0.00,,CLR,0.00,VWS V14.01,2013-12-12 19:55:00,
2013-12-12 15:00:00,48.8,23.0,30.44,SW,236,1.0,1.0,36,0.00,,CLR,0.00,VWS V14.01,2013-12-12 20:00:00,
2013-12-12 15:05:00,48.7,23.6,30.44,WSW,249,3.0,10.0,37,0.00,,CLR,0.00,VWS V14.01,2013-12-12 20:05:00,
2013-12-12 15:10:00,48.3,22.6,30.44,NNE,12,1.0,10.0,36,0.00,,CLR,0.00,VWS V14.01,2013-12-12 20:10:00,
2013-12-12 15:15:00,48.5,24.1,30.44,NNE,29,2.0,10.0,38,0.00,,CLR,0.00,VWS V14.01,2013-12-12 20:15:00,
2013-12-12 15:20:00,47.4,23.1,30.44,NNW,345,2.0,10.0,38,0.00,,CLR,0.00,VWS V14.01,2013-12-12 20:20:00,
2013-12-12 15:25:00,46.4,22.2,30.44,WSW,256,5.0,10.0,38,0.00,,CLR,0.00,VWS V14.01,2013-12-12 20:25:00,
2013-12-12 15:30:00,46.0,23.0,30.44,North,11,1.0,5.0,40,0.00,,CLR,0.00,VWS V14.01,2013-12-12 20:30:00,
2013-12-12 15:35:00,46.2,22.6,30.44,SW,232,0.0,6.0,39,0.00,,CLR,0.00,VWS V14.01,2013-12-12 20:35:00,
2013-12-12 15:40:00,46.1,22.5,30.44,West,263,2.0,7.0,39,0.00,,CLR,0.00,VWS V14.01,2013-12-12 20:40:00,
2013-12-12 15:45:00,45.7,22.8,30.44,WSW,244,0.0,10.0,40,0.00,,CLR,0.00,VWS V14.01,2013-12-12 20:45:00,
2013-12-12 15:50:00,45.5,22.6,30.45,SW,235,0.0,10.0,40,0.00,,CLR,0.00,VWS V14.01,2013-12-12 20:50:00,
2013-12-12 15:55:00,45.8,23.5,30.45,West,273,0.0,10.0,41,0.00,,CLR,0.00,VWS V14.01,2013-12-12 20:55:00,
2013-12-12 16:00:00,45.7,22.2,30.45,WSW,249,7.0,7.0,39,0.00,,CLR,0.00,VWS V14.01,2013-12-12 21:00:00,
2013-12-12 16:05:00,45.3,21.8,30.45,WSW,257,2.0,10.0,39,0.00,,CLR,0.00,VWS V14.01,2013-12-12 21:05:00,
2013-12-12 16:10:00,45.1,22.2,30.45,NW,305,2.0,10.0,40,0.00,,CLR,0.00,VWS V14.01,2013-12-12 21:10:00,
2013-12-12 16:15:00,45.0,22.1,30.45,SW,235,7.0,10.0,40,0.00,,CLR,0.00,VWS V14.01,2013-12-12 21:15:00,
2013-12-12 16:20:00,44.9,23.2,30.45,SW,234,0.0,10.0,42,0.00,,CLR,0.00,VWS V14.01,2013-12-12 21:20:00,
2013-12-12 16:25:00,44.8,22.0,30.45,NNE,30,2.0,10.0,40,0.00,,CLR,0.00,VWS V14.01,2013-12-12 21:25:00,
2013-12-12 16:30:00,44.6,22.9,30.45,WSW,241,0.0,3.0,42,0.00,,CLR,0.00,VWS V14.01,2013-12-12 21:30:00,
2013-12-12 16:35:00,44.5,23.4,30.45,NNW,329,0.0,3.0,43,0.00,,CLR,0.00,VWS V14.01,2013-12-12 21:35:00,
2013-12-12 16:40:00,44.4,22.8,30.45,NNE,12,3.0,5.0,42,0.00,,CLR,0.00,VWS V14.01,2013-12-12 21:40:00,
2013-12-12 16:45:00,44.3,22.7,30.45,NE,43,0.0,5.0,42,0.00,,CLR,0.00,VWS V14.01,2013-12-12 21:45:00,
2013-12-12 16:50:00,44.3,22.7,30.45,NNE,13,2.0,5.0,42,0.00,,CLR,0.00,VWS V14.01,2013-12-12 21:50:00,
2013-12-12 16:55:00,44.0,22.4,30.45,West,260,5.0,5.0,42,0.00,,CLR,0.00,VWS V14.01,2013-12-12 21:55:00,
2013-12-12 17:00:00,43.7,22.1,30.45,WNW,292,0.0,2.0,42,0.00,,CLR,0.00,VWS V14.01,2013-12-12 22:00:00,
2013-12-12 17:05:00,43.5,22.0,30.45,West,277,0.0,4.0,42,0.00,,CLR,0.00,VWS V14.01,2013-12-12 22:05:00,
2013-12-12 17:10:00,43.3,21.8,30.45,WSW,240,0.0,4.0,42,0.00,,CLR,0.00,VWS V14.01,2013-12-12 22:10:00,
2013-12-12 17:15:00,42.9,22.5,30.45,WSW,240,0.0,4.0,44,0.00,,CLR,0.00,VWS V14.01,2013-12-12 22:15:00,
2013-12-12 17:20:00,42.5,21.6,30.46,SW,223,2.0,4.0,43,0.00,,CLR,0.00,VWS V14.01,2013-12-12 22:20:00,
2013-12-12 17:25:00,42.2,21.3,30.46,SW,225,0.0,4.0,43,0.00,,CLR,0.00,VWS V14.01,2013-12-12 22:25:00,
2013-12-12 17:30:00,41.9,21.6,30.46,SW,221,0.0,4.0,44,0.00,,CLR,0.00,VWS V14.01,2013-12-12 22:30:00,
2013-12-12 17:35:00,41.6,21.3,30.46,NW,317,4.0,4.0,44,0.00,,CLR,0.00,VWS V14.01,2013-12-12 22:35:00,
2013-12-12 17:40:00,41.3,22.1,30.45,WSW,238,0.0,4.0,46,0.00,,CLR,0.00,VWS V14.01,2013-12-12 22:40:00,
2013-12-12 17:45:00,40.9,22.7,30.45,West,260,0.0,5.0,48,0.00,,CLR,0.00,VWS V14.01,2013-12-12 22:45:00,
2013-12-12 17:50:00,40.6,20.4,30.45,SW,225,0.0,5.0,44,0.00,,CLR,0.00,VWS V14.01,2013-12-12 22:50:00,
2013-12-12 17:55:00,40.3,20.7,30.45,NNW,336,2.0,5.0,45,0.00,,CLR,0.00,VWS V14.01,2013-12-12 22:55:00,
2013-12-12 18:00:00,40.1,21.5,30.45,NNW,327,0.0,0.0,47,0.00,,CLR,0.00,VWS V14.01,2013-12-12 23:00:00,
2013-12-12 18:05:00,39.8,20.2,30.45,WNW,285,0.0,2.0,45,0.00,,CLR,0.00,VWS V14.01,2013-12-12 23:05:00,
2013-12-12 18:10:00,39.6,21.0,30.45,West,279,0.0,4.0,47,0.00,,CLR,0.00,VWS V14.01,2013-12-12 23:10:00,
2013-12-12 18:14:00,39.3,21.3,30.44,NW,325,0.0,4.0,48,0.00,,CLR,0.00,VWS V14.01,2013-12-12 23:14:00,
2013-12-12 18:19:00,39.1,20.6,30.45,WSW,251,0.0,4.0,47,0.00,,CLR,0.00,VWS V14.01,2013-12-12 23:19:00,
2013-12-12 18:24:00,38.9,20.4,30.44,WSW,250,0.0,4.0,47,0.00,,CLR,0.00,VWS V14.01,2013-12-12 23:24:00,
2013-12-12 18:29:00,38.7,21.2,30.45,WSW,251,0.0,1.0,49,0.00,,CLR,0.00,VWS V14.01,2013-12-12 23:29:00,
2013-12-12 18:30:00,38.8,20.8,30.45,WSW,251,0.0,4.0,48,0.00,,CLR,0.00,VWS V14.01,2013-12-12 23:30:00,
2013-12-12 18:34:00,38.5,20.0,30.45,WSW,243,0.0,4.0,47,0.00,,CLR,0.00,VWS V14.01,2013-12-12 23:34:00,
2013-12-12 18:39:00,38.3,21.3,30.45,WNW,287,0.0,4.0,50,0.00,,CLR,0.00,VWS V14.01,2013-12-12 23:39:00,
2013-12-12 18:44:00,38.2,20.2,30.45,West,273,0.0,4.0,48,0.00,,CLR,0.00,VWS V14.01,2013-12-12 23:44:00,
2013-12-12 18:49:00,38.1,20.2,30.45,NNW,327,0.0,6.0,48,0.00,,CLR,0.00,VWS V14.01,2013-12-12 23:49:00,
2013-12-12 18:54:00,37.9,20.5,30.45,NE,34,0.0,6.0,49,0.00,,CLR,0.00,VWS V14.01,2013-12-12 23:54:00,
2013-12-12 18:59:00,37.8,20.4,30.45,NNE,30,0.0,0.0,49,0.00,,CLR,0.00,VWS V14.01,2013-12-12 23:59:00,
2013-12-12 19:00:00,37.8,20.4,30.45,NNE,30,0.0,6.0,49,0.00,,CLR,0.00,VWS V14.01,2013-12-13 00:00:00,
2013-12-12 19:04:00,37.7,20.8,30.45,NNE,30,0.0,1.0,50,0.00,,CLR,0.00,VWS V14.01,2013-12-13 00:04:00,
2013-12-12 19:09:00,37.4,20.9,30.46,NNW,341,0.0,1.0,51,0.00,,CLR,0.00,VWS V14.01,2013-12-13 00:09:00,
2013-12-12 19:14:00,37.3,20.4,30.46,ENE,57,0.0,1.0,50,0.00,,CLR,0.00,VWS V14.01,2013-12-13 00:14:00,
2013-12-12 19:19:00,37.1,21.6,30.46,West,266,1.0,3.0,53,0.00,,CLR,0.00,VWS V14.01,2013-12-13 00:19:00,
2013-12-12 19:24:00,37.0,21.0,30.46,West,266,0.0,3.0,52,0.00,,CLR,0.00,VWS V14.01,2013-12-13 00:24:00,
2013-12-12 19:29:00,36.8,21.3,30.46,WNW,290,0.0,0.0,53,0.00,,CLR,0.00,VWS V14.01,2013-12-13 00:29:00,
2013-12-12 19:30:00,36.9,20.9,30.46,WNW,290,0.0,3.0,52,0.00,,CLR,0.00,VWS V15.00,2013-12-13 00:30:00,
2013-12-12 19:34:00,36.8,20.8,30.46,West,259,0.0,4.0,52,0.00,,CLR,0.00,VWS V14.01,2013-12-13 00:34:00,
2013-12-12 19:39:00,36.8,20.4,30.46,NW,326,0.0,6.0,51,0.00,,CLR,0.00,VWS V14.01,2013-12-13 00:39:00,
2013-12-12 19:44:00,36.7,20.3,30.46,West,275,0.0,8.0,51,0.00,,CLR,0.00,VWS V14.01,2013-12-13 00:44:00,
2013-12-12 19:49:00,36.7,20.3,30.45,WSW,251,0.0,8.0,51,0.00,,CLR,0.00,VWS V14.01,2013-12-13 00:49:00,
2013-12-12 19:54:00,36.5,21.0,30.45,WSW,251,0.0,8.0,53,0.00,,CLR,0.00,VWS V14.01,2013-12-13 00:54:00,
2013-12-12 19:59:00,36.4,20.5,30.45,WNW,286,0.0,1.0,52,0.00,,CLR,0.00,VWS V14.01,2013-12-13 00:59:00,
2013-12-12 20:00:00,36.4,20.5,30.45,WNW,296,1.0,8.0,52,0.00,,CLR,0.00,VWS V15.00,2013-12-13 01:00:00,
2013-12-12 20:04:00,36.3,20.4,30.45,WNW,300,1.0,2.0,52,0.00,,CLR,0.00,VWS V14.01,2013-12-13 01:04:00,
2013-12-12 20:09:00,36.3,20.4,30.45,West,275,0.0,4.0,52,0.00,,CLR,0.00,VWS V14.01,2013-12-13 01:09:00,
2013-12-12 20:14:00,36.2,20.3,30.46,WNW,299,0.0,4.0,52,0.00,,CLR,0.00,VWS V14.01,2013-12-13 01:14:00,
2013-12-12 20:19:00,36.1,20.6,30.45,SW,234,1.0,4.0,53,0.00,,CLR,0.00,VWS V14.01,2013-12-13 01:19:00,
2013-12-12 20:24:00,35.8,21.6,30.45,SW,234,0.0,4.0,56,0.00,,CLR,0.00,VWS V14.01,2013-12-13 01:24:00,
2013-12-12 20:29:00,35.4,21.3,30.45,SW,234,0.0,0.0,56,0.00,,CLR,0.00,VWS V14.01,2013-12-13 01:29:00,
2013-12-12 20:30:00,35.4,21.7,30.45,SW,234,0.0,4.0,57,0.00,,CLR,0.00,VWS V15.00,2013-12-13 01:30:00,
2013-12-12 20:34:00,35.2,19.8,30.45,WSW,242,0.0,1.0,53,0.00,,CLR,0.00,VWS V14.01,2013-12-13 01:34:00,
2013-12-12 20:39:00,35.0,20.9,30.45,WSW,242,0.0,1.0,56,0.00,,CLR,0.00,VWS V14.01,2013-12-13 01:39:00,
2013-12-12 20:44:00,34.7,20.6,30.45,WSW,242,0.0,1.0,56,0.00,,CLR,0.00,VWS V14.01,2013-12-13 01:44:00,
2013-12-12 20:49:00,34.5,20.4,30.45,WSW,242,0.0,1.0,56,0.00,,CLR,0.00,VWS V14.01,2013-12-13 01:49:00,
2013-12-12 20:54:00,34.5,20.9,30.45,WSW,242,0.0,1.0,57,0.00,,CLR,0.00,VWS V14.01,2013-12-13 01:54:00,
2013-12-12 20:59:00,34.4,20.8,30.45,WSW,242,1.0,1.0,57,0.00,,CLR,0.00,VWS V14.01,2013-12-13 01:59:00,
2013-12-12 21:00:00,34.4,21.2,30.45,WSW,242,0.0,1.0,58,0.00,,CLR,0.00,VWS V14.01,2013-12-13 02:00:00,
2013-12-12 21:04:00,34.3,21.5,30.45,WSW,243,0.0,3.0,59,0.00,,CLR,0.00,VWS V14.01,2013-12-13 02:04:00,
2013-12-12 21:09:00,34.1,20.9,30.45,WSW,243,0.0,3.0,58,0.00,,CLR,0.00,VWS V14.01,2013-12-13 02:09:00,
2013-12-12 21:14:00,33.9,20.7,30.44,WSW,243,0.0,3.0,58,0.00,,CLR,0.00,VWS V14.01,2013-12-13 02:14:00,
2013-12-12 21:19:00,33.7,20.1,30.44,WSW,243,0.0,3.0,57,0.00,,CLR,0.00,VWS V14.01,2013-12-13 02:19:00,
2013-12-12 21:24:00,33.6,20.0,30.44,WSW,243,0.0,3.0,57,0.00,,CLR,0.00,VWS V14.01,2013-12-13 02:24:00,
2013-12-12 21:29:00,33.4,21.0,30.44,WSW,243,0.0,0.0,60,0.00,,CLR,0.00,VWS V14.01,2013-12-13 02:29:00,
2013-12-12 21:30:00,33.4,21.0,30.44,WSW,243,0.0,3.0,60,0.00,,CLR,0.00,VWS V14.01,2013-12-13 02:30:00,
2013-12-12 21:34:00,33.1,21.5,30.44,WSW,243,0.0,0.0,62,0.00,,CLR,0.00,VWS V14.01,2013-12-13 02:34:00,
2013-12-12 21:39:00,32.8,21.2,30.44,WSW,243,0.0,0.0,62,0.00,,CLR,0.00,VWS V14.01,2013-12-13 02:39:00,
2013-12-12 21:44:00,32.6,21.8,30.44,WSW,243,0.0,0.0,64,0.00,,CLR,0.00,VWS V14.01,2013-12-13 02:44:00,
2013-12-12 21:49:00,32.4,21.6,30.44,WSW,243,0.0,0.0,64,0.00,,CLR,0.00,VWS V14.01,2013-12-13 02:49:00,
2013-12-12 21:54:00,32.1,22.0,30.44,WSW,243,0.0,0.0,66,0.00,,CLR,0.00,VWS V14.01,2013-12-13 02:54:00,
2013-12-12 21:59:00,31.9,22.5,30.44,WSW,243,0.0,0.0,68,0.00,,CLR,0.00,VWS V14.01,2013-12-13 02:59:00,
2013-12-12 22:00:00,31.9,22.2,30.44,WSW,243,0.0,0.0,67,0.00,,CLR,0.00,VWS V14.01,2013-12-13 03:00:00,
2013-12-12 22:04:00,31.7,22.7,30.44,WSW,243,0.0,0.0,69,0.00,,CLR,0.00,VWS V14.01,2013-12-13 03:04:00,
2013-12-12 22:09:00,31.6,22.6,30.45,WSW,243,0.0,0.0,69,0.00,,CLR,0.00,VWS V14.01,2013-12-13 03:09:00,
2013-12-12 22:14:00,31.4,22.4,30.45,WSW,243,0.0,0.0,69,0.00,,CLR,0.00,VWS V14.01,2013-12-13 03:14:00,
2013-12-12 22:19:00,31.1,22.5,30.45,WSW,243,0.0,0.0,70,0.00,,CLR,0.00,VWS V14.01,2013-12-13 03:19:00,
2013-12-12 22:24:00,31.0,22.7,30.45,WSW,243,0.0,0.0,71,0.00,,CLR,0.00,VWS V14.01,2013-12-13 03:24:00,
2013-12-12 22:29:00,30.8,22.5,30.45,WSW,243,0.0,0.0,71,0.00,,CLR,0.00,VWS V14.01,2013-12-13 03:29:00,
2013-12-12 22:30:00,30.8,22.5,30.45,WSW,243,0.0,0.0,71,0.00,,CLR,0.00,VWS V14.01,2013-12-13 03:30:00,
2013-12-12 22:34:00,30.7,23.4,30.45,WSW,243,0.0,0.0,74,0.00,,CLR,0.00,VWS V14.01,2013-12-13 03:34:00,
2013-12-12 22:39:00,30.6,23.3,30.45,WSW,243,0.0,0.0,74,0.00,,CLR,0.00,VWS V14.01,2013-12-13 03:39:00,
2013-12-12 22:44:00,30.5,23.5,30.45,WSW,243,0.0,0.0,75,0.00,,CLR,0.00,VWS V14.01,2013-12-13 03:44:00,
2013-12-12 22:49:00,30.3,23.3,30.45,WSW,243,0.0,0.0,75,0.00,,CLR,0.00,VWS V14.01,2013-12-13 03:49:00,
2013-12-12 22:54:00,30.2,23.2,30.45,WSW,243,0.0,0.0,75,0.00,,CLR,0.00,VWS V14.01,2013-12-13 03:54:00,
2013-12-12 22:59:00,30.0,23.0,30.45,WSW,243,0.0,0.0,75,0.00,,CLR,0.00,VWS V14.01,2013-12-13 03:59:00,
2013-12-12 23:00:00,30.0,23.0,30.45,WSW,243,0.0,0.0,75,0.00,,CLR,0.00,VWS V15.00,2013-12-13 04:00:00,
2013-12-12 23:04:00,29.9,23.3,30.45,WSW,243,0.0,0.0,76,0.00,,CLR,0.00,VWS V14.01,2013-12-13 04:04:00,
2013-12-12 23:09:00,29.9,23.3,30.45,WSW,243,0.0,0.0,76,0.00,,CLR,0.00,VWS V14.01,2013-12-13 04:09:00,
2013-12-12 23:14:00,29.8,23.5,30.45,WSW,243,0.0,0.0,77,0.00,,CLR,0.00,VWS V14.01,2013-12-13 04:14:00,
2013-12-12 23:19:00,29.7,23.7,30.45,WSW,243,0.0,0.0,78,0.00,,CLR,0.00,VWS V14.01,2013-12-13 04:19:00,
2013-12-12 23:24:00,29.7,23.7,30.45,WSW,243,0.0,0.0,78,0.00,,CLR,0.00,VWS V14.01,2013-12-13 04:24:00,
2013-12-12 23:29:00,29.7,23.4,30.45,WSW,243,0.0,0.0,77,0.00,,CLR,0.00,VWS V14.01,2013-12-13 04:29:00,
2013-12-12 23:30:00,29.7,23.4,30.45,WSW,243,0.0,0.0,77,0.00,,CLR,0.00,VWS V14.01,2013-12-13 04:30:00,
2013-12-12 23:34:00,29.7,23.7,30.45,WSW,243,0.0,0.0,78,0.00,,CLR,0.00,VWS V14.01,2013-12-13 04:34:00,
2013-12-12 23:39:00,29.8,24.4,30.45,WSW,243,0.0,0.0,80,0.00,,CLR,0.00,VWS V14.01,2013-12-13 04:39:00,
2013-12-12 23:44:00,29.9,24.2,30.45,WSW,243,0.0,0.0,79,0.00,,CLR,0.00,VWS V14.01,2013-12-13 04:44:00,
2013-12-12 23:49:00,29.9,24.2,30.45,WSW,243,0.0,0.0,79,0.00,,CLR,0.00,VWS V14.01,2013-12-13 04:49:00,
2013-12-12 23:54:00,29.9,23.6,30.45,WSW,243,0.0,0.0,77,0.00,,CLR,0.00,VWS V14.01,2013-12-13 04:54:00,
2013-12-12 23:59:00,30.1,24.1,30.45,WSW,243,0.0,0.0,78,0.00,,CLR,0.00,VWS V14.01,2013-12-13 04:59:00,